GW1458 Weather Reports


time (UTC)temp
C
wind
direction
speed
KPH
gust
KPH
rain 1hr
cm
rain 24hr
cm
rain mn
cm
humidity
%
barometer
mb
20260504190030 7 358 33.8 57.9 0.00 0.00 0.00 56 1013.1
20260504184531 7 195 40.2 57.9 0.00 0.00 0.00 56 1013.2
20260504183028 7 343 33.8 61.2 0.00 0.00 0.00 55 1013.2
20260504181537 8 343 43.5 61.2 0.00 0.00 0.00 55 1013.0
20260504180035 8 344 43.5 66.0 0.00 0.00 0.00 55 1013.2
20260504174528 7 349 38.6 57.9 0.00 0.00 0.00 55 1013.4
20260504173034 7 349 49.9 62.8 0.00 0.00 0.00 57 1013.6
20260504171533 7 338 48.3 64.4 0.00 0.00 0.00 55 1013.5
20260504081530 11 68 6.4 14.5 0.00 0.00 0.00 41 1008.7
20260504044529 10 317 1.6 9.7 0.00 0.00 0.00 53 1009.5
20260504043035 10 268 0.0 4.8 0.00 0.00 0.00 54 1009.6
20260504041531 10 0 0.0 6.4 0.00 0.00 0.00 54 1009.7
20260504040046 9 281 1.6 4.8 0.00 0.00 0.00 54 1009.8
20260504034530 9 292 0.0 1.6 0.00 0.00 0.00 53 1009.9
20260504033034 10 0 1.6 3.2 0.00 0.00 0.00 53 1009.8
20260504031530 10 323 3.2 6.4 0.00 0.00 0.00 50 1009.8
20260504030029 11 279 1.6 4.8 0.00 0.00 0.00 49 1009.9
20260504024528 12 284 1.6 6.4 0.00 0.00 0.00 45 1009.9
20260504023028 13 274 4.8 6.4 0.00 0.00 0.00 41 1009.7
20260504021532 15 276 1.6 4.8 0.00 0.00 0.00 35 1009.8
20260504020031 16 0 0.0 4.8 0.00 0.00 0.00 35 1009.7
20260504014532 16 318 9.7 14.5 0.00 0.00 0.00 34 1009.8
20260504013031 16 344 11.3 16.1 0.00 0.00 0.00 33 1009.8
20260504011528 17 336 12.9 17.7 0.00 0.00 0.00 33 1010.1
20260504010030 17 8 12.9 20.9 0.00 0.00 0.00 33 1010.1
20260504004539 17 343 16.1 22.5 0.00 0.00 0.00 35 1010.2
20260504003029 18 248 9.7 27.4 0.00 0.00 0.00 37 1010.4
20260504001529 17 359 20.9 30.6 0.00 0.00 0.00 38 1010.4
20260504000029 18 346 19.3 32.2 0.00 0.00 0.00 38 1010.6
20260503234533 18 349 17.7 27.4 0.00 0.00 0.00 38 1010.8
20260503233028 18 317 19.3 30.6 0.00 0.00 0.00 39 1010.8
20260503231528 17 347 24.1 40.2 0.00 0.00 0.00 37 1010.9
20260503230030 18 300 20.9 38.6 0.00 0.00 0.00 38 1011.1
20260503224531 18 354 20.9 35.4 0.00 0.00 0.00 36 1010.9
20260503223030 17 333 30.6 41.8 0.00 0.00 0.00 35 1010.8
20260503221529 17 7 29.0 41.8 0.00 0.00 0.00 38 1011.1
20260503220028 17 10 33.8 43.5 0.00 0.00 0.00 38 1011.3
20260503214532 17 354 19.3 32.2 0.00 0.00 0.00 35 1011.7
20260503213029 17 357 19.3 32.2 0.00 0.00 0.00 34 1011.9
20260503211531 17 333 22.5 35.4 0.00 0.00 0.00 35 1012.3
20260503210029 17 209 16.1 29.0 0.00 0.00 0.00 37 1012.9
20260503204530 17 259 16.1 32.2 0.00 0.00 0.00 43 1013.5
20260503203030 16 280 11.3 25.7 0.00 0.00 0.00 45 1013.4
20260503201531 14 278 9.7 37.0 0.00 0.00 0.00 55 1013.4
20260503200032 17 269 14.5 30.6 0.00 0.00 0.00 40 1013.7
20260503194532 16 23 14.5 37.0 0.00 0.00 0.00 42 1013.7
20260503193039 16 262 9.7 19.3 0.00 0.00 0.00 41 1013.9
20260503191531 16 218 6.4 16.1 0.00 0.00 0.00 42 1014.1